B6186 KBFI-KCLM

Flight info

Callsign B6186
Flight time 0h 24m
Altitude 6000
Route LOFAL JAWBN WATTR
Aircraft A318/M-SDE3FGHIJ1J2J3J4J5M1P2RWXYZ/LB1D1

Departure

Time 2026-05-05 08:23
Airport King County International Airport - Boeing Field (KBFI)

Arrival

Time 2026-05-05 08:47
Airport William R Fairchild International Airport (KCLM)
Time Latitude Longitude Altitude Speed Heading
2026-05-05 07:50 47.53752 -122.30498 33 ft 0 kts 321°
2026-05-05 08:12 47.53753 -122.30498 33 ft 0 kts 321°
2026-05-05 08:14 47.53753 -122.30499 33 ft 0 kts 321°
2026-05-05 08:16 47.53754 -122.30500 33 ft 1 kts 321°
2026-05-05 08:16 47.53766 -122.30531 33 ft 6 kts 263°
2026-05-05 08:17 47.53746 -122.30583 33 ft 9 kts 261°
2026-05-05 08:17 47.53800 -122.30657 33 ft 12 kts 328°
2026-05-05 08:17 47.53875 -122.30721 33 ft 12 kts 330°
2026-05-05 08:17 47.53935 -122.30773 33 ft 10 kts 330°
2026-05-05 08:18 47.53996 -122.30824 33 ft 10 kts 330°
2026-05-05 08:18 47.54052 -122.30879 33 ft 9 kts 321°
2026-05-05 08:18 47.54086 -122.30920 33 ft 4 kts 321°
2026-05-05 08:18 47.54091 -122.30925 33 ft 0 kts 321°
2026-05-05 08:19 47.54093 -122.30928 33 ft 1 kts 321°
2026-05-05 08:19 47.54098 -122.30933 33 ft 1 kts 321°
2026-05-05 08:19 47.54104 -122.30940 33 ft 0 kts 321°
2026-05-05 08:19 47.54105 -122.30942 33 ft 1 kts 321°
2026-05-05 08:20 47.54105 -122.30974 33 ft 6 kts 232°
2026-05-05 08:20 47.54089 -122.31004 33 ft 1 kts 237°
2026-05-05 08:20 47.54085 -122.31011 33 ft 1 kts 237°
2026-05-05 08:20 47.54083 -122.31017 33 ft 0 kts 237°
2026-05-05 08:21 47.54083 -122.31018 33 ft 0 kts 237°
2026-05-05 08:21 47.54075 -122.31035 33 ft 6 kts 237°
2026-05-05 08:22 47.54035 -122.31098 33 ft 9 kts 196°
2026-05-05 08:22 47.53974 -122.31073 33 ft 10 kts 148°
2026-05-05 08:22 47.53926 -122.31033 33 ft 13 kts 150°
2026-05-05 08:22 47.53598 -122.30755 33 ft 106 kts 150°
2026-05-05 08:23 47.52750 -122.30040 410 ft 154 kts 150°
2026-05-05 08:23 47.51790 -122.29233 1318 ft 164 kts 150°
2026-05-05 08:23 47.50761 -122.28366 2205 ft 186 kts 150°
2026-05-05 08:23 47.49531 -122.27333 2933 ft 219 kts 150°
2026-05-05 08:24 47.48120 -122.26145 3838 ft 242 kts 150°
2026-05-05 08:24 47.46618 -122.24878 4910 ft 256 kts 150°
2026-05-05 08:24 47.44980 -122.23711 5713 ft 268 kts 165°
2026-05-05 08:24 47.43144 -122.23173 5940 ft 266 kts 174°
2026-05-05 08:25 47.41325 -122.22883 5980 ft 263 kts 185°
2026-05-05 08:25 47.39578 -122.23535 5996 ft 255 kts 211°
2026-05-05 08:25 47.38278 -122.25216 6000 ft 248 kts 238°
2026-05-05 08:25 47.37656 -122.27545 6008 ft 244 kts 261°
2026-05-05 08:26 47.37429 -122.30037 6003 ft 244 kts 265°
2026-05-05 08:26 47.37253 -122.32511 6000 ft 244 kts 265°
2026-05-05 08:26 47.37081 -122.34978 6000 ft 243 kts 265°
2026-05-05 08:26 47.37218 -122.37428 5993 ft 242 kts 290°
2026-05-05 08:27 47.38199 -122.39422 6000 ft 245 kts 321°
2026-05-05 08:27 47.39748 -122.40572 6007 ft 249 kts 335°
2026-05-05 08:27 47.41358 -122.41478 6001 ft 249 kts 336°
2026-05-05 08:27 47.42971 -122.42398 6000 ft 248 kts 336°
2026-05-05 08:28 47.44572 -122.43332 6000 ft 248 kts 335°
2026-05-05 08:28 47.46175 -122.44280 6000 ft 248 kts 335°
2026-05-05 08:28 47.47773 -122.45234 6000 ft 248 kts 335°
2026-05-05 08:28 47.49380 -122.46199 6000 ft 248 kts 335°
2026-05-05 08:29 47.50967 -122.47156 6000 ft 248 kts 335°
2026-05-05 08:29 47.52583 -122.48133 6000 ft 248 kts 335°
2026-05-05 08:29 47.54175 -122.49098 6000 ft 248 kts 335°
2026-05-05 08:30 47.57374 -122.51040 6000 ft 248 kts 335°
2026-05-05 08:30 47.58962 -122.52005 6000 ft 248 kts 335°
2026-05-05 08:30 47.60551 -122.52972 6000 ft 248 kts 335°
2026-05-05 08:30 47.62148 -122.53944 6000 ft 248 kts 335°
2026-05-05 08:31 47.63739 -122.54914 6000 ft 248 kts 335°
2026-05-05 08:31 47.65348 -122.55895 5999 ft 248 kts 335°
2026-05-05 08:31 47.66950 -122.56872 6000 ft 248 kts 335°
2026-05-05 08:31 47.68537 -122.57841 6000 ft 248 kts 335°
2026-05-05 08:32 47.70137 -122.58819 6000 ft 248 kts 335°
2026-05-05 08:32 47.71737 -122.59798 6000 ft 248 kts 335°
2026-05-05 08:32 47.73331 -122.60773 6000 ft 248 kts 335°
2026-05-05 08:32 47.74938 -122.61756 6000 ft 248 kts 335°
2026-05-05 08:33 47.76530 -122.62732 6000 ft 248 kts 335°
2026-05-05 08:33 47.78123 -122.63708 6000 ft 248 kts 335°
2026-05-05 08:33 47.79706 -122.64680 6000 ft 248 kts 335°
2026-05-05 08:33 47.81308 -122.65663 6000 ft 248 kts 335°
2026-05-05 08:34 47.82909 -122.66647 6000 ft 248 kts 334°
2026-05-05 08:34 47.84495 -122.67625 5999 ft 248 kts 333°
2026-05-05 08:34 47.86005 -122.68822 6001 ft 247 kts 327°
2026-05-05 08:34 47.87489 -122.70145 6000 ft 246 kts 326°
2026-05-05 08:35 47.88948 -122.71459 6000 ft 246 kts 326°
2026-05-05 08:35 47.90411 -122.72777 6000 ft 246 kts 326°
2026-05-05 08:35 47.91886 -122.74106 6000 ft 246 kts 326°
2026-05-05 08:35 47.93346 -122.75423 6000 ft 246 kts 326°
2026-05-05 08:36 47.94822 -122.76755 6000 ft 246 kts 326°
2026-05-05 08:36 47.96279 -122.78071 6000 ft 246 kts 326°
2026-05-05 08:36 47.97743 -122.79393 6000 ft 246 kts 326°
2026-05-05 08:36 47.99206 -122.80715 6000 ft 246 kts 326°
2026-05-05 08:37 48.00684 -122.82053 6000 ft 246 kts 326°
2026-05-05 08:37 48.02076 -122.83432 5991 ft 229 kts 318°
2026-05-05 08:37 48.02784 -122.84528 5842 ft 214 kts 304°
2026-05-05 08:37 48.03366 -122.86449 5709 ft 192 kts 288°
2026-05-05 08:38 48.03748 -122.88323 5570 ft 189 kts 287°
2026-05-05 08:38 48.04130 -122.90314 5426 ft 203 kts 286°
2026-05-05 08:38 48.04507 -122.92361 5258 ft 207 kts 286°
2026-05-05 08:38 48.04883 -122.94455 5096 ft 208 kts 286°
2026-05-05 08:39 48.05252 -122.96542 4939 ft 209 kts 286°
2026-05-05 08:39 48.05625 -122.98671 4780 ft 210 kts 286°
2026-05-05 08:39 48.06110 -123.01469 4571 ft 211 kts 285°
2026-05-05 08:39 48.06359 -123.02912 4462 ft 211 kts 285°
2026-05-05 08:40 48.06724 -123.05035 4302 ft 212 kts 285°
2026-05-05 08:40 48.07090 -123.07166 4141 ft 213 kts 285°
2026-05-05 08:40 48.07458 -123.09319 3979 ft 213 kts 285°
2026-05-05 08:40 48.07813 -123.11455 3829 ft 211 kts 283°
2026-05-05 08:41 48.08057 -123.13518 3695 ft 197 kts 277°
2026-05-05 08:41 48.08160 -123.15554 3624 ft 195 kts 274°
2026-05-05 08:41 48.08244 -123.17576 3547 ft 194 kts 274°
2026-05-05 08:41 48.08320 -123.19575 3470 ft 193 kts 274°
2026-05-05 08:42 48.08393 -123.21570 3393 ft 191 kts 273°
2026-05-05 08:42 48.08460 -123.23477 3326 ft 177 kts 273°
2026-05-05 08:42 48.08521 -123.25275 3253 ft 173 kts 273°
2026-05-05 08:42 48.08581 -123.27077 3184 ft 172 kts 273°
2026-05-05 08:43 48.08640 -123.28875 3113 ft 170 kts 272°
2026-05-05 08:43 48.08711 -123.30637 3047 ft 171 kts 275°
2026-05-05 08:43 48.08891 -123.32385 2894 ft 170 kts 282°
2026-05-05 08:43 48.09160 -123.34070 2610 ft 161 kts 284°
2026-05-05 08:44 48.09422 -123.35634 2367 ft 148 kts 284°
2026-05-05 08:44 48.09664 -123.37053 2155 ft 136 kts 284°
2026-05-05 08:44 48.09890 -123.38371 1966 ft 126 kts 284°
2026-05-05 08:44 48.10107 -123.39639 1767 ft 124 kts 284°
2026-05-05 08:45 48.10316 -123.40879 1585 ft 124 kts 284°
2026-05-05 08:45 48.10534 -123.42128 1397 ft 123 kts 284°
2026-05-05 08:45 48.10750 -123.43367 1211 ft 123 kts 284°
2026-05-05 08:45 48.10964 -123.44594 1027 ft 123 kts 284°
2026-05-05 08:46 48.11180 -123.45833 841 ft 122 kts 284°
2026-05-05 08:46 48.11393 -123.47055 674 ft 122 kts 284°
2026-05-05 08:46 48.11605 -123.48274 510 ft 121 kts 284°
2026-05-05 08:46 48.11814 -123.49503 342 ft 121 kts 284°
2026-05-05 08:47 48.12005 -123.50588 306 ft 87 kts 285°
2026-05-05 08:47 48.12079 -123.51017 306 ft 19 kts 284°
2026-05-05 08:47 48.12113 -123.51147 306 ft 8 kts 297°
2026-05-05 08:47 48.12105 -123.51180 306 ft 3 kts 203°
2026-05-05 08:48 48.12091 -123.51175 306 ft 0 kts 147°
2026-05-05 08:48 48.12086 -123.51145 306 ft 7 kts 87°
2026-05-05 08:48 48.12087 -123.51072 306 ft 8 kts 91°
2026-05-05 08:48 48.12073 -123.50981 306 ft 11 kts 104°
2026-05-05 08:49 48.12052 -123.50854 306 ft 14 kts 104°
2026-05-05 08:49 48.12024 -123.50690 306 ft 18 kts 104°
2026-05-05 08:49 48.11989 -123.50488 306 ft 22 kts 104°
2026-05-05 08:49 48.11948 -123.50249 306 ft 26 kts 104°
2026-05-05 08:50 48.11899 -123.49968 306 ft 30 kts 104°
2026-05-05 08:50 48.11844 -123.49652 306 ft 33 kts 104°
2026-05-05 08:50 48.11795 -123.49370 306 ft 17 kts 104°
2026-05-05 08:50 48.11777 -123.49271 306 ft 5 kts 112°
2026-05-05 08:51 48.11745 -123.49256 306 ft 5 kts 178°
2026-05-05 08:51 48.11708 -123.49270 306 ft 6 kts 197°
2026-05-05 08:51 48.11689 -123.49322 306 ft 7 kts 275°
2026-05-05 08:51 48.11690 -123.49330 306 ft 0 kts 287°